Meteopurmerend
purmerend
Purmerend - Baaienwijk



My webcam  My webcam


Onweer radar Meer informatie blitzortung!


Regen radar Meer informatie rain snow radar


Bezoek onze andere website:

CandyAppleRed WebdesignWebdesign Purmerend Candy Apple Red

MeteopurmerendBlog

Template documentation
and downloads



Wind van: 01-12-2021 09:00 tot: 16:00 waarschuwing voor: Wind niveau: Geel info button
Kans op zware windstoten tot 80-90 km/uur, verder landinwaarts tot 70-80 km/uur.Kans op windstoten.Verkeer en buitenactiviteiten kunnen hinder ondervinden.Volg weerberichten en waarschuwingen.

15 daagse weersverwachting Salerno (IT)

  • Overzicht
  • Per uur
  • 15 dagen
  • Extra
  • Vergelijk
  • Kaarten
  • Dagkaart
  • Meer »
  • Info
  • Statistieken
  • Directe link
    Temp 6h Neerslag Wind  
 07:07     16:34    Daglengte: 9:27 Vandaag
13:00
11°
 
2
19:00
11°
0.7 mm
2
 07:08     16:34    Daglengte: 9:26 Morgen
01:00
12°
4.7 mm
5
07:00
12°
10.2 mm
5
13:00
13°
25.1 mm
7
19:00
14°
18.4 mm
8
 07:09     16:33    Daglengte: 9:24 Vrijdag 03 Dec
01:00
13°
40.5 mm
7
07:00
11°
63.7 mm
1
13:00
12°
52.6 mm
2
19:00
10°
43.3 mm
3
 07:10     16:33    Daglengte: 9:23 Zaterdag 04 Dec
01:00
 
5
07:00
 
3
Locatie info
Region: Campania
Latitude: 40.6735°N
Longitude: 14.7713°E
46 masl
Postcode: 84123
Temp/Neerslag /Baro Onweer/Dauwpunt
    Temp Baro 1h Neerslag Dauwpunt Wind UV Bewolking  
 07:07     16:34    Daglengte: 9:27 Vandaag
10:00
Voelt als: 8.1°
1020.4 hPa
47%
5.2°
2
Windvlaag: -0.7 m/s
82%
11:00
10°
Voelt als: 9.0°
1019.7 hPa
33%
6.2°
2
Windvlaag: -0.8 m/s
30%
12:00
11°
1019.0 hPa
69%
7.3°
2
Windvlaag: -0.5 m/s
66%
13:00
11°
1018.3 hPa
74%
7.9°
2
Windvlaag: 2.2 m/s
76%
14:00
11°
1017.6 hPa 0.2 mm
80%
8.1°
2
Windvlaag: 2.1 m/s
79%
15:00
11°
1017.0 hPa 0.5 mm
82%
8.2°
3
Windvlaag: 1.8 m/s
65%
16:00
11°
1016.5 hPa
82%
8.4°
2
Windvlaag: 2 m/s
77%
17:00
11°
1016.2 hPa
82%
7.7°
2
Windvlaag: 0.8 m/s
70%
18:00
11°
1015.8 hPa
82%
7.5°
1
Windvlaag: 0.7 m/s
67%
19:00
11°
1015.5 hPa
82%
7.8°
2
Windvlaag: 2.6 m/s
31%
20:00
11°
1015.2 hPa
80%
7.3°
2
Windvlaag: 2 m/s
43%
21:00
11°
1014.9 hPa
77%
7.4°
2
Windvlaag: 2.4 m/s
39%
22:00
11°
1014.4 hPa
71%
7.8°
3
Windvlaag: 2.8 m/s
44%
23:00
12°
1013.7 hPa
73%
8.2°
3
Windvlaag: 5.3 m/s
35%
 07:08     16:34    Daglengte: 9:26 Morgen
00:00
12°
1013.0 hPa 2.6 mm
76%
8.1°
5
Windvlaag: 8.4 m/s
57%
01:00
12°
1012.1 hPa 2.0 mm
80%
8.8°
5
Windvlaag: 8.7 m/s
54%
02:00
12°
1011.3 hPa 2.6 mm
81%
9.6°
4
Windvlaag: 8 m/s
50%
03:00
12°
1010.4 hPa
80%
10.0°
5
Windvlaag: 9.1 m/s
41%
04:00
12°
1009.6 hPa
82%
10.4°
6
Windvlaag: 10.5 m/s
40% warningclass
05:00
12°
1009.0 hPa
82%
9.8°
5
Windvlaag: 9.8 m/s
41%
06:00
12°
1008.8 hPa 3.2 mm
82%
10.1°
5
Windvlaag: 9 m/s
79%
07:00
12°
1008.6 hPa 4.4 mm
82%
10.0°
5
Windvlaag: 9.9 m/s
86%
08:00
13°
1008.5 hPa 4.4 mm
82%
9.8°
5
Windvlaag: 9.5 m/s
84%
09:00
13°
1008.3 hPa 4.2 mm
82%
10.0°
6
Windvlaag: 11.2 m/s
83%
10:00
13°
1008.3 hPa 3.7 mm
82%
9.8°
6
Windvlaag: 10.7 m/s
86%
11:00
13°
1007.9 hPa 3.8 mm
82%
10.9°
7
Windvlaag: 12.4 m/s
78%
12:00
14°
1006.7 hPa 4.2 mm
82%
11.1°
7
Windvlaag: 11.7 m/s
79% warningclass
13:00
13°
1006.1 hPa 4.8 mm
82%
11.0°
7
Windvlaag: 11.8 m/s
86%
14:00
13°
1005.3 hPa 4.5 mm
82%
10.7°
6
Windvlaag: 12.1 m/s
86% warningclass
15:00
14°
1004.9 hPa 4.0 mm
82%
10.8°
7
Windvlaag: 12.7 m/s
71% warningclass
16:00
13°
1004.5 hPa
82%
10.6°
8
Windvlaag: 14.2 m/s
54% warningclass
17:00
13°
1004.0 hPa 3.0 mm
80%
10.3°
7
Windvlaag: 13.2 m/s
33%
18:00
14°
1003.7 hPa 3.4 mm
80%
10.3°
7
Windvlaag: 14.1 m/s
33%
19:00
14°
1003.5 hPa 3.5 mm
74%
10.4°
8
Windvlaag: 13.4 m/s
21%
20:00
13°
1003.3 hPa 3.9 mm
69%
10.7°
7
Windvlaag: 13.6 m/s
33%
21:00
14°
1002.9 hPa
72%
11.4°
8
Windvlaag: 13.8 m/s
78%
22:00
13°
1002.6 hPa 6.2 mm
78%
11.6°
6
Windvlaag: 15.1 m/s
84%
23:00
13°
1002.5 hPa 8.6 mm
81%
11.1°
7
Windvlaag: 13.4 m/s
86% warningclass
 07:09     16:33    Daglengte: 9:24 Vrijdag 03 Dec
00:00
13°
1002.0 hPa 10.2 mm
82%
11.0°
6
Windvlaag: 12.4 m/s
86% warningclass
01:00
13°
1001.7 hPa 11.6 mm
82%
10.3°
7
Windvlaag: 13.6 m/s
86%
02:00
12°
1001.9 hPa 11.5 mm
82%
9.2°
5
Windvlaag: 12.1 m/s
86%
03:00
12°
1001.7 hPa 11.4 mm
82%
9.0°
4
Windvlaag: 9.5 m/s
86%
04:00
11°
1001.7 hPa 10.5 mm
100%
7.6°
4
Windvlaag: 4.1 m/s
100%
05:00
11°
1001.7 hPa 10.7 mm
100%
7.4°
3
Windvlaag: 4.8 m/s
100%
06:00
11°
1002.0 hPa 10.0 mm
100%
7.1°
2
Windvlaag: 3.6 m/s
97%
07:00
11°
1002.6 hPa 9.5 mm
100%
6.9°
1
Windvlaag: 1 m/s
96%
08:00
11°
1003.3 hPa 15.6 mm
100%
6.4°
1
Windvlaag: 0.7 m/s
98%
09:00
11°
1004.2 hPa 9.1 mm
98%
7.0°
1
Windvlaag: 0.6 m/s
96%
10:00
11°
1005.0 hPa 9.3 mm
93%
7.4°
1
Windvlaag: 0.4 m/s
94%
11:00
11°
1005.4 hPa 9.4 mm
92%
6.9°
1
Windvlaag: 0.5 m/s
95%
12:00
12°
1005.0 hPa 9.1 mm
89%
5.3°
1
Windvlaag: 0.4 m/s
97%
13:00
12°
1005.0 hPa
90%
4.8°
2
Windvlaag: 0.4 m/s
99%
14:00
12°
1005.2 hPa 14.5 mm
90%
4.5°
1
Windvlaag: 1.7 m/s
95%
15:00
12°
1005.5 hPa 14.4 mm
90%
4.7°
1
Windvlaag: 1.7 m/s
96%
16:00
11°
1006.0 hPa 14.5 mm
95%
4.6°
1
Windvlaag: -0 m/s
98%
17:00
11°
1006.4 hPa
90%
4.2°
2
Windvlaag: -0.9 m/s
83%
18:00
10°
1007.1 hPa
39%
3.8°
4
Windvlaag: -5.1 m/s
70%
19:00
10°
Voelt als: 8.0°
1007.9 hPa
45%
4.6°
3
Windvlaag: -4.8 m/s
69%
20:00
10°
Voelt als: 7.9°
1008.2 hPa
50%
5.8°
4
Windvlaag: -5.1 m/s
43%
21:00
Voelt als: 6.8°
1008.6 hPa
46%
5.1°
5
Windvlaag: -6.8 m/s
50%
22:00
Voelt als: 6.0°
1008.9 hPa
32%
3.8°
6
Windvlaag: -7.9 m/s
50%
23:00
Voelt als: 5.6°
1009.3 hPa
22%
3.0°
6
Windvlaag: -7.9 m/s
8%
 07:10     16:33    Daglengte: 9:23 Zaterdag 04 Dec
00:00
Voelt als: 5.2°
1009.6 hPa
21%
2.1°
5
Windvlaag: -8.2 m/s
0%
01:00
Voelt als: 4.9°
1009.6 hPa
21%
1.8°
5
Windvlaag: -7.4 m/s
0%
02:00
Voelt als: 5.4°
1009.6 hPa
21%
1.9°
4
Windvlaag: 11.4 m/s
0%
03:00
Voelt als: 5.3°
1009.6 hPa
21%
2.1°
4
Windvlaag: 11.8 m/s
0%
04:00
Voelt als: 5.2°
1009.8 hPa
21%
2.4°
4
Windvlaag: 10.7 m/s
0%
05:00
Voelt als: 4.8°
1009.8 hPa
21%
2.4°
3
Windvlaag: 9.7 m/s
0%
06:00
Voelt als: 4.6°
1010.1 hPa
21%
2.4°
3
Windvlaag: 9.2 m/s
0%
07:00
Voelt als: 4.5°
1010.7 hPa
21%
2.5°
3
Windvlaag: 9.2 m/s
0%
08:00
Voelt als: 4.5°
1009.5 hPa 42.8 mm
100%
2.7°
6
Windvlaag: 8.7 m/s
0%
09:00
Voelt als: 6.6°
1010.3 hPa 42.8 mm
100%
2.1°
5
Windvlaag: 7.1 m/s
0%
Temp/Neerslag /Baro Onweer/Dauwpunt
    Temp Baro Neerslag Dauwpunt Wind Bewolking  
 07:07     16:34    Daglengte: 9:27 Vandaag
10:00
Voelt als: 8.1°
1020.4 hPa   5.2°
2
82%
13:00
11°
1018.3 hPa   7.9°
2
76%
16:00
11°
1016.5 hPa 0.7 mm 8.4°
2
77%
19:00
11°
1015.5 hPa   7.8°
2
31%
22:00
11°
1014.4 hPa   7.8°
3
44%
 07:08     16:34    Daglengte: 9:26 Morgen
01:00
12°
1012.1 hPa 4.7 mm 8.8°
5
54%
04:00
12°
1009.6 hPa 2.6 mm 10.4°
6
40% warningclass
07:00
12°
1008.6 hPa 7.6 mm 10.0°
5
86%
10:00
13°
1008.3 hPa 12.3 mm 9.8°
6
86%
13:00
13°
1006.1 hPa 12.8 mm 11.0°
7
86%
16:00
13°
1004.5 hPa 8.5 mm 10.6°
8
54% warningclass
19:00
14°
1003.5 hPa 9.9 mm 10.4°
8
21%
22:00
13°
1002.6 hPa 10.1 mm 11.6°
6
84%
 07:09     16:33    Daglengte: 9:24 Vrijdag 03 Dec
01:00
13°
1001.7 hPa 30.3 mm 10.3°
7
86%
04:00
11°
1001.7 hPa 33.5 mm 7.6°
4
100%
07:00
11°
1002.6 hPa 30.2 mm 6.9°
1
96%
10:00
11°
1005.0 hPa 34.0 mm 7.4°
1
94%
13:00
12°
1005.0 hPa 18.6 mm 4.8°
2
99%
16:00
11°
1006.0 hPa 43.3 mm 4.6°
1
98%
19:00
10°
Voelt als: 8.0°
1007.9 hPa   4.6°
3
69%
22:00
Voelt als: 6.0°
1008.9 hPa   3.8°
6
50%
 07:10     16:33    Daglengte: 9:23 Zaterdag 04 Dec
01:00
Voelt als: 4.9°
1009.6 hPa   1.8°
5
0%
04:00
Voelt als: 5.2°
1009.8 hPa   2.4°
4
0%
07:00
Voelt als: 4.5°
1010.7 hPa   2.5°
3
0%
10:00
10°
1010.6 hPa 128.4 mm 1.4°
3
0%
13:00
12°
1009.1 hPa 128.4 mm -0.5°
4
29%
16:00
12°
1012.0 hPa 52.8 mm 3.8°
1
1%
19:00
11°
1012.1 hPa 53.4 mm 6.6°
2
1%
22:00
11°
1010.1 hPa 54.9 mm 9.5°
2
1%
 07:11     16:33    Daglengte: 9:22 Zondag 05 Dec
01:00
12°
1007.3 hPa 64.0 mm 12.1°
4
1%
04:00
13°
1006.3 hPa 68.5 mm 12.2°
5
1%
07:00
13°
1006.3 hPa 69.1 mm 9.5°
4
1%
10:00
13°
1007.0 hPa 70.9 mm 8.9°
6
1%
13:00
13°
1006.7 hPa 71.9 mm 5.6°
7
1%
16:00
12°
1006.0 hPa 72.8 mm 5.3°
5
1%
19:00
11°
1005.4 hPa 75.1 mm 5.7°
9
1%
22:00
11°
1004.6 hPa 77.5 mm 5.5°
9
1%
 07:12     16:33    Daglengte: 9:21 Maandag 06 Dec
01:00
10°
1004.0 hPa 81.1 mm 6.1°
5
1%
04:00
10°
Voelt als: 7.8°
1003.6 hPa 83.8 mm 7.0°
4
1%
07:00
10°
Voelt als: 7.7°
1003.1 hPa 87.8 mm 6.1°
4
1%
10:00
11°
1003.8 hPa 91.1 mm 5.2°
2
1%
13:00
11°
1003.4 hPa 92.7 mm 3.8°
1
1%
16:00
10°
1004.5 hPa 94.0 mm 3.6°
3
0%
19:00
Voelt als: 5.6°
1006.5 hPa 94.4 mm 3.5°
5
0%
22:00
Voelt als: 5.5°
1008.0 hPa 94.4 mm 2.6°
4
1%
 07:13     16:33    Daglengte: 9:20 Dinsdag 07 Dec
01:00
Voelt als: 5.2°
1008.2 hPa 94.4 mm 2.2°
4
0%
04:00
Voelt als: 3.8°
1008.8 hPa 96.0 mm 3.6°
6
1%
07:00
Voelt als: 3.5°
1009.6 hPa 96.0 mm 1.9°
6
1%
10:00
Voelt als: 5.1°
1010.8 hPa 96.0 mm 1.8°
7
0%
13:00
Voelt als: 5.8°
1011.2 hPa 96.0 mm 1.7°
8
0%
16:00
Voelt als: 4.7°
1012.5 hPa 96.1 mm 2.6°
7
1%
19:00
Voelt als: 3.9°
1014.3 hPa 96.1 mm 1.3°
6
0%
22:00
Voelt als: 3.7°
1015.1 hPa 96.2 mm 1.7°
5
0%
 07:14     16:33    Daglengte: 9:19 Woensdag 08 Dec
01:00
Voelt als: 3.8°
1015.5 hPa 96.2 mm 1.5°
4
0%
04:00
Voelt als: 3.9°
1016.0 hPa 96.2 mm 1.8°
4
0%
07:00
Voelt als: 3.5°
1016.9 hPa 192.3 mm 0.6°
3
0%
13:00
10°
1016.4 hPa 192.3 mm -2.7°
1
0%
19:00
1018.0 hPa 192.3 mm 0.0°
1
0%
 07:14     16:33    Daglengte: 9:19 Donderdag 09 Dec
01:00
Voelt als: 5.8°
1019.3 hPa 192.3 mm 1.0°
2
0%
07:00
Voelt als: 5.0°
1019.6 hPa 192.3 mm -0.3°
2
1%
13:00
12°
1018.4 hPa 192.3 mm -4.4°
1
0%
19:00
Voelt als: 7.2°
1018.6 hPa 192.3 mm -0.7°
3
0%
 07:15     16:33    Daglengte: 9:18 Vrijdag 10 Dec
01:00
Voelt als: 5.6°
1017.8 hPa 192.3 mm 0.8°
4
1%
07:00
Voelt als: 4.3°
1016.2 hPa 192.3 mm 0.7°
5
1%
13:00
12°
1013.3 hPa 192.3 mm 4.7°
6
1%
19:00
Voelt als: 6.0°
1012.1 hPa 193.0 mm 5.9°
7
1%
 07:16     16:33    Daglengte: 9:17 Zaterdag 11 Dec
01:00
10°
1010.9 hPa 206.4 mm 7.6°
4
1%
07:00
10°
Voelt als: 8.9°
1017.0 hPa 2.4 mm 7.0°
2
74%
13:00
13°
1017.4 hPa 3.0 mm 8.0°
1
71%
19:00
11°
1018.5 hPa 0.4 mm 7.6°
2
71%
 07:17     16:33    Daglengte: 9:16 Zondag 12 Dec
01:00
10°
1019.8 hPa 1.4 mm 7.5°
2
67%
07:00
10°
Voelt als: 8.7°
1020.5 hPa 1.0 mm 7.0°
2
65%
13:00
13°
1021.1 hPa 0.5 mm 8.1°
1
58%
19:00
11°
1022.0 hPa 0.8 mm 7.8°
1
55%
 07:18     16:34    Daglengte: 9:16 Maandag 13 Dec
01:00
11°
1022.7 hPa 0.3 mm 8.0°
2
51%
07:00
10°
1022.8 hPa 0.5 mm 7.2°
1
48%
13:00
14°
1023.2 hPa 0.1 mm 8.3°
1
45%
19:00
11°
1023.8 hPa 0.2 mm 7.8°
1
44%
 07:18     16:34    Daglengte: 9:16 Dinsdag 14 Dec
01:00
10°
1024.2 hPa 0.1 mm 7.2°
2
47%
07:00
10°
Voelt als: 9.2°
1023.6 hPa 0.1 mm 7.0°
2
58%
13:00
13°
1023.0 hPa 0.4 mm 7.7°
1
59%
19:00
11°
1023.0 hPa 0.4 mm 7.5°
2
58%
 07:19     16:34    Daglengte: 9:15 Woensdag 15 Dec
01:00
10°
Voelt als: 8.7°
1023.4 hPa 0.4 mm 6.7°
2
52%
07:00
Voelt als: 7.8°
1023.1 hPa 0.2 mm 6.2°
3
51%
13:00
13°
1023.1 hPa   6.8°
2
46%
19:00
10°
1023.6 hPa 0.1 mm 6.7°
2
44%
 07:20     16:34    Daglengte: 9:14 Donderdag 16 Dec
01:00
10°
Voelt als: 8.4°
1024.2 hPa 0.1 mm 6.4°
2
39%
07:00
Voelt als: 7.9°
1023.7 hPa 0.2 mm 6.1°
2
41%
  CAPE Lifted Index Hail Supercell Tornado SRH 3km CL BTM PRES CL TOP PRES Swiss DWD icon SMHI TS
 07:07     16:34    Daglengte: 9:27 Vandaag
10:00 26 J/kg 7.8 K 0 % 0 % 0 % 0 m²/s² 0 0 13.02 3
11:00 23 J/kg 7.7 K 0 % 0 % 0 % 0 m²/s² 0 0 13.07 2
12:00 27 J/kg 7.2 K 0 % 0 % 0 % 0 m²/s² 0 0 12.42 3
13:00 27 J/kg 6.5 K 0 % 0 % 0 % 0 m²/s² 0 0 11.6 3
14:00 85 J/kg 5.0 K 0 % 0 % 0 % 0 m²/s² 0 0 10.1 61
15:00 110 J/kg 4.4 K 0 % 0 % 0 % 0 m²/s² 0 0 9.77 61
16:00 125 J/kg 4.0 K 0 % 0 % 0 % 0 m²/s² 0 0 9.07 3
17:00 112 J/kg 4.1 K 0 % 0 % 0 % 0 m²/s² 0 0 9.44 3
18:00 108 J/kg 4.0 K 0 % 0 % 0 % 0 m²/s² 0 0 9.64 3
19:00 122 J/kg 3.9 K 0 % 0 % 0 % 0 m²/s² 0 0 9.09 2
20:00 138 J/kg 3.5 K 0 % 0 % 0 % 0 m²/s² 0 0 8.15 2
21:00 158 J/kg 2.8 K 0 % 0 % 0 % 0 m²/s² 0 0 7.45 3
22:00 194 J/kg 2.2 K 0 % 0 % 0 % 0 m²/s² 0 0 6.16 3
23:00 177 J/kg 1.8 K 0 % 0 % 0 % 0 m²/s² 0 0 5.67 2
 07:08     16:34    Daglengte: 9:26 Morgen
00:00 207 J/kg 1.1 K 0 % 0 % 0 % 0 m²/s² 0 0 3.68 3
01:00 140 J/kg 0.7 K 0 % 0 % 0 % 0 m²/s² 0 0 1 80
02:00 48 J/kg 0.2 K 0 % 0 % 0 % 0 m²/s² 0 0 1.13 80
03:00 498 J/kg -1.6 K 0 % 0 % 0 % 0 m²/s² 0 0 0.89 80
04:00 580 J/kg -1.9 K 0 % 0 % 0 % 0 m²/s² 0 0 0.38 95
05:00 43 J/kg 1.1 K 0 % 0 % 0 % 0 m²/s² 0 0 2.18 80
06:00 372 J/kg -0.7 K 0 % 0 % 0 % 0 m²/s² 0 0 2.39 80
07:00 308 J/kg -0.5 K 0 % 0 % 0 % 0 m²/s² 0 0 1.99 80
08:00 240 J/kg 0.1 K 0 % 0 % 0 % 0 m²/s² 0 0 0.76 80
09:00 292 J/kg -0.8 K 0 % 0 % 0 % 0 m²/s² 0 0 0.52 81
10:00 338 J/kg -1.4 K 0 % 0 % 0 % 0 m²/s² 0 0 1.03 81
11:00 501 J/kg -2.1 K 0 % 0 % 0 % 0 m²/s² 0 0 -1.2 80
12:00 496 J/kg -1.8 K 0 % 0 % 0 % 0 m²/s² 0 0 -0.51 95
13:00 594 J/kg -1.9 K 0 % 0 % 0 % 0 m²/s² 0 0 0.26 81
14:00 608 J/kg -2.1 K 0 % 0 % 0 % 0 m²/s² 0 0 1.02 95
15:00 272 J/kg -0.5 K 0 % 0 % 0 % 0 m²/s² 0 0 0.79 95
16:00 225 J/kg -0.3 K 0 % 0 % 0 % 0 m²/s² 0 0 0.24 95
17:00 205 J/kg -0.2 K 0 % 0 % 0 % 0 m²/s² 0 0 0.25 80
18:00 259 J/kg -0.7 K 0 % 0 % 0 % 0 m²/s² 0 0 -0.46 80
19:00 287 J/kg -0.5 K 0 % 0 % 0 % 0 m²/s² 0 0 -0.29 2
20:00 341 J/kg -0.8 K 0 % 0 % 0 % 0 m²/s² 0 0 -0.65 2
21:00 318 J/kg -0.7 K 0 % 0 % 0 % 0 m²/s² 0 0 -0.49 3
22:00 373 J/kg -0.9 K 0 % 0 % 0 % 0 m²/s² 0 0 -0.66 3
23:00 104 J/kg 1.2 K 0 % 0 % 0 % 0 m²/s² 0 0 1.41 95
 07:09     16:33    Daglengte: 9:24 Vrijdag 03 Dec
00:00 176 J/kg 0.4 K 0 % 0 % 0 % 0 m²/s² 0 0 0.67 95
01:00 386 J/kg -1.0 K 0 % 0 % 0 % 0 m²/s² 0 0 -0.67 81
02:00 1 J/kg 1.2 K 0 % 0 % 0 % 0 m²/s² 0 0 1.53 81
03:00 17 J/kg 2.6 K 0 % 0 % 0 % 0 m²/s² 0 0 2.9 81
04:00 0 J/kg 2.8 K 0 % 0 % 0 % 0 m²/s² 0 0 3.07 81
05:00 0 J/kg 3.4 K 0 % 0 % 0 % 0 m²/s² 0 0 3.85 81
06:00 0 J/kg 4.4 K 0 % 0 % 0 % 0 m²/s² 0 0 4.82 81
07:00 0 J/kg 4.2 K 0 % 0 % 0 % 0 m²/s² 0 0 4.56 80
08:00 0 J/kg 3.8 K 0 % 0 % 0 % 0 m²/s² 0 0 4.13 81
09:00 0 J/kg 3.3 K 0 % 0 % 0 % 0 m²/s² 0 0 3.66 80
10:00 5 J/kg 3.2 K 0 % 0 % 0 % 0 m²/s² 0 0 3.56 80
11:00 24 J/kg 2.5 K 0 % 0 % 0 % 0 m²/s² 0 0 2.89 80
12:00 17 J/kg 1.5 K 0 % 0 % 0 % 0 m²/s² 0 0 1.86 80
13:00 41 J/kg 0.9 K 0 % 0 % 0 % 0 m²/s² 0 0 1.35 3
14:00 43 J/kg 0.4 K 0 % 0 % 0 % 0 m²/s² 0 0 0.88 3
15:00 102 J/kg -0.5 K 0 % 0 % 0 % 0 m²/s² 0 0 -0.05 3
16:00 119 J/kg -0.5 K 0 % 0 % 0 % 0 m²/s² 0 0 -0.11 3
17:00 0 J/kg 0.9 K 0 % 0 % 0 % 0 m²/s² 0 0 1.77 3
18:00 0 J/kg 1.5 K 0 % 0 % 0 % 0 m²/s² 0 0 2.37 3
19:00 0 J/kg 1.1 K 0 % 0 % 0 % 0 m²/s² 0 0 2.45 3
20:00 0 J/kg 0.6 K 0 % 0 % 0 % 0 m²/s² 0 0 2.91 3
21:00 0 J/kg 0.3 K 0 % 0 % 0 % 0 m²/s² 0 0 3.36 3
22:00 0 J/kg 1.6 K 0 % 0 % 0 % 0 m²/s² 0 0 5.08 3
23:00 0 J/kg 3.7 K 0 % 0 % 0 % 0 m²/s² 0 0 7.09 0
 07:10     16:33    Daglengte: 9:23 Zaterdag 04 Dec
00:00 0 J/kg 4.7 K 0 % 0 % 0 % 0 m²/s² 0 0 8.45 0
01:00 0 J/kg 7.4 K 0 % 0 % 0 % 0 m²/s² 0 0 13.82 0
02:00 0 J/kg 8.9 K 0 % 0 % 0 % 0 m²/s² 0 0 16.94 0
03:00 0 J/kg 10.2 K 0 % 0 % 0 % 0 m²/s² 0 0 17.97 0
04:00 0 J/kg 11.1 K 0 % 0 % 0 % 0 m²/s² 0 0 18.9 0
05:00 0 J/kg 11.9 K 0 % 0 % 0 % 0 m²/s² 0 0 20.09 0
06:00 0 J/kg 12.1 K 0 % 0 % 0 % 0 m²/s² 0 0 20.02 0
07:00 0 J/kg 12.7 K 0 % 0 % 0 % 0 m²/s² 0 0 20.65 1
08:00 0 J/kg 12.7 K 0 % 0 % 0 % 0 m²/s² 0 0 20.38
09:00 0 J/kg 12.8 K 0 % 0 % 0 % 0 m²/s² 0 0 19.94
Temp Baro Wind Neerslag
  EWN Forecast EWN WRFDA DWD ICON FMI HIRLAM MET Norway GFS
 07:07     16:34    Daglengte: 9:27 Vandaag
10:00 9.1° 1020.4 hPa 2.0 m/s 0.0 mm 12.8° 1017.2 hPa 3.3 m/s 0.0 mm 9.0° 1020.9 hPa 0.4 m/s -2.0 mm 9.8° 1020.2 hPa 1.8 m/s 0.0 mm 12.3° 1020.4 hPa 2.4 m/s
13:00 11.0° 1018.3 hPa 2.1 m/s 0.0 mm 13.6° 1015.3 hPa 6.0 m/s 0.1 mm 10.6° 1018.6 hPa 1.7 m/s 0.0 mm 11.4° 1018.0 hPa 1.8 m/s 0.0 mm 13.3° 1018.2 hPa 3.8 m/s
16:00 10.9° 1016.5 hPa 2.3 m/s 0.7 mm 13.6° 1013.8 hPa 6.2 m/s 1.7 mm 10.5° 1016.8 hPa 1.4 m/s 0.5 mm 13.3° 1016.1 hPa 3.9 m/s 0.0 mm 12.9° 1016.3 hPa 3.8 m/s
19:00 10.8° 1015.5 hPa 1.6 m/s 0.0 mm 13.6° 1012.9 hPa 4.8 m/s 2.6 mm 10.2° 1015.9 hPa 0.4 m/s 0.1 mm 13.8° 1014.6 hPa 4.7 m/s 0.0 mm 12.9° 1015.3 hPa 4.3 m/s
22:00 11.2° 1014.4 hPa 2.5 m/s 0.0 mm 14.0° 1012.5 hPa 7.1 m/s 3.0 mm 11.1° 1014.7 hPa 1.1 m/s 0.2 mm 14.2° 1013.5 hPa 4.8 m/s 0.0 mm
 07:08     16:34    Daglengte: 9:26 Morgen
01:00 11.9° 1012.1 hPa 4.6 m/s 4.7 mm 13.4° 1009.8 hPa 10.3 m/s 7.0 mm 11.5° 1012.6 hPa 2.6 m/s 1.0 mm 14.4° 1011.1 hPa 6.4 m/s 0.0 mm 13.2° 1012.0 hPa 5.5 m/s
04:00 12.4° 1009.6 hPa 6.1 m/s 2.6 mm 14.3° 1007.1 hPa 8.3 m/s 22.1 mm 11.9° 1010.5 hPa 4.8 m/s 5.6 mm 14.7° 1007.7 hPa 9.3 m/s 0.0 mm 13.3° 1009.7 hPa 6.1 m/s
07:00 12.3° 1008.6 hPa 4.7 m/s 7.6 mm 14.5° 1006.1 hPa 8.1 m/s 28.7 mm 11.9° 1009.6 hPa 4.0 m/s 7.0 mm 14.3° 1006.8 hPa 6.2 m/s 0.0 mm 13.8° 1008.4 hPa 6.9 m/s
10:00 12.9° 1008.3 hPa 5.8 m/s 12.3 mm 15.6° 1005.3 hPa 9.5 m/s 30.9 mm 12.3° 1009.4 hPa 4.4 m/s 8.1 mm 15.1° 1006.1 hPa 8.2 m/s 0.0 mm 14.5° 1008.1 hPa 7.6 m/s
13:00 13.4° 1006.1 hPa 6.6 m/s 12.8 mm 15.9° 1002.9 hPa 11.4 m/s 33.0 mm 12.4° 1007.2 hPa 5.5 m/s 9.5 mm 15.2° 1004.1 hPa 9.4 m/s 0.0 mm 14.9° 1005.8 hPa 9.1 m/s
16:00 13.5° 1004.5 hPa 7.6 m/s 8.5 mm 15.5° 1001.4 hPa 11.2 m/s 37.2 mm 13.0° 1005.2 hPa 6.4 m/s 8.6 mm 14.8° 1002.8 hPa 8.8 m/s 0.0 mm 14.5° 1004.2 hPa 8.9 m/s
19:00 13.7° 1003.5 hPa 7.6 m/s 9.9 mm 14.9° 1000.9 hPa 10.0 m/s 40.7 mm 13.3° 1004.1 hPa 7.1 m/s 1.8 mm 14.5° 1001.9 hPa 8.9 m/s 0.0 mm 14.5° 1003.1 hPa 9.3 m/s
22:00 13.4° 1002.6 hPa 6.5 m/s 10.1 mm 14.5° 999.2 hPa 9.4 m/s 72.8 mm 13.3° 1003.0 hPa 6.6 m/s 0.4 mm 13.8° 1001.5 hPa 4.4 m/s 0.0 mm 14.1° 1002.4 hPa 9.8 m/s
 07:09     16:33    Daglengte: 9:24 Vrijdag 03 Dec
01:00 12.7° 1001.7 hPa 6.8 m/s 30.3 mm 13.3° 999.7 hPa 7.9 m/s 115.9 mm 12.6° 1001.8 hPa 7.8 m/s 6.4 mm 13.2° 1001.1 hPa 2.5 m/s 0.0 mm 13.0° 1001.3 hPa 6.7 m/s
04:00 11.1° 1001.7 hPa 4.2 m/s 33.5 mm 10.7° 999.5 hPa 4.3 m/s 123.4 mm 12.1° 1001.5 hPa 5.9 m/s 11.4 mm 10.7° 1002.3 hPa 4.3 m/s
07:00 10.9° 1002.6 hPa 1.1 m/s 30.2 mm 11.1° 1000.2 hPa 1.6 m/s 126.0 mm 11.6° 1002.3 hPa 1.2 m/s 7.7 mm 10.0° 1003.0 hPa 3.2 m/s
10:00 10.7° 1005.0 hPa 1.4 m/s 34.0 mm 10.8° 1002.1 hPa 3.1 m/s 126.8 mm 11.8° 1004.9 hPa 0.9 m/s 5.1 mm 10.4° 1003.6 hPa 1.1 m/s
13:00 11.8° 1005.0 hPa 1.6 m/s 18.6 mm 13.6° 1001.4 hPa 4.9 m/s 128.4 mm 11.8° 1005.1 hPa 1.3 m/s 2.3 mm 11.5° 1003.0 hPa 1.1 m/s
16:00 11.3° 1006.0 hPa 1.4 m/s 43.3 mm 13.5° 1002.4 hPa 5.1 m/s 128.4 mm 11.3° 1006.2 hPa 0.8 m/s 0.8 mm 10.8° 1004.2 hPa 1.2 m/s
19:00 9.8° 1007.9 hPa 3.5 m/s 0.0 mm 11.1° 1004.5 hPa 5.4 m/s 128.4 mm 10.0° 1008.1 hPa 1.7 m/s 0.0 mm 10.3° 1006.2 hPa 2.8 m/s
22:00 9.1° 1008.9 hPa 6.2 m/s 0.0 mm 10.2° 1005.6 hPa 11.7 m/s 128.4 mm 9.2° 1009.0 hPa 3.1 m/s 0.0 mm 9.8° 1008.2 hPa 5.7 m/s
 07:10     16:33    Daglengte: 9:23 Zaterdag 04 Dec
01:00 7.9° 1009.6 hPa 5.2 m/s 0.0 mm 8.9° 1006.9 hPa 9.8 m/s 128.4 mm 8.0° 1009.5 hPa 2.5 m/s 0.0 mm 9.0° 1010.1 hPa 4.3 m/s
04:00 7.5° 1009.8 hPa 3.5 m/s 0.0 mm 7.9° 1008.0 hPa 8.0 m/s 128.4 mm 7.4° 1010.3 hPa 2.4 m/s 0.0 mm 8.6° 1010.7 hPa 3.0 m/s
07:00 6.7° 1010.7 hPa 3.1 m/s 0.0 mm 7.3° 1008.9 hPa 6.1 m/s 128.4 mm 6.6° 1011.1 hPa 2.4 m/s 0.0 mm 8.2° 1011.6 hPa 2.6 m/s
10:00 10.3° 1010.6 hPa 3.4 m/s 128.4 mm 10.3° 1010.6 hPa 3.4 m/s 128.4 mm 10.6° 1012.5 hPa 0.2 m/s
13:00 12.5° 1009.1 hPa 4.2 m/s 128.4 mm 12.5° 1009.1 hPa 4.2 m/s 128.4 mm 12.2° 1011.5 hPa 1.7 m/s
16:00 11.7° 1012.0 hPa 0.5 m/s 52.8 mm 11.7° 1012.0 hPa 0.5 m/s 52.8 mm
19:00 10.7° 1012.1 hPa 1.7 m/s 53.4 mm 10.7° 1012.1 hPa 1.7 m/s 53.4 mm
22:00 10.6° 1010.1 hPa 2.2 m/s 54.9 mm 10.6° 1010.1 hPa 2.2 m/s 54.9 mm
 07:11     16:33    Daglengte: 9:22 Zondag 05 Dec
01:00 12.4° 1007.3 hPa 4.0 m/s 64.0 mm 12.4° 1007.3 hPa 4.0 m/s 64.0 mm
04:00 13.2° 1006.3 hPa 4.6 m/s 68.5 mm 13.2° 1006.3 hPa 4.6 m/s 68.5 mm
07:00 13.0° 1006.3 hPa 3.9 m/s 69.1 mm 13.0° 1006.3 hPa 3.9 m/s 69.1 mm
10:00 12.8° 1007.0 hPa 5.8 m/s 70.9 mm 12.8° 1007.0 hPa 5.8 m/s 70.9 mm
13:00 13.1° 1006.7 hPa 7.0 m/s 71.9 mm 13.1° 1006.7 hPa 7.0 m/s 71.9 mm
16:00 11.9° 1006.0 hPa 4.6 m/s 72.8 mm 11.9° 1006.0 hPa 4.6 m/s 72.8 mm
19:00 11.3° 1005.4 hPa 9.5 m/s 75.1 mm 11.3° 1005.4 hPa 9.5 m/s 75.1 mm
22:00 10.9° 1004.6 hPa 8.7 m/s 77.5 mm 10.9° 1004.6 hPa 8.7 m/s 77.5 mm
 07:12     16:33    Daglengte: 9:21 Maandag 06 Dec
01:00 10.1° 1004.0 hPa 5.1 m/s 81.1 mm 10.1° 1004.0 hPa 5.1 m/s 81.1 mm
04:00 9.8° 1003.6 hPa 3.8 m/s 83.8 mm 9.8° 1003.6 hPa 3.8 m/s 83.8 mm
07:00 9.7° 1003.1 hPa 3.8 m/s 87.8 mm 9.7° 1003.1 hPa 3.8 m/s 87.8 mm
10:00 10.6° 1003.8 hPa 2.3 m/s 91.1 mm 10.6° 1003.8 hPa 2.3 m/s 91.1 mm
13:00 11.4° 1003.4 hPa 0.7 m/s 92.7 mm 11.4° 1003.4 hPa 0.7 m/s 92.7 mm
16:00 10.3° 1004.5 hPa 2.8 m/s 94.0 mm 10.3° 1004.5 hPa 2.8 m/s 94.0 mm
19:00 8.4° 1006.5 hPa 4.8 m/s 94.4 mm 8.4° 1006.5 hPa 4.8 m/s 94.4 mm
22:00 7.9° 1008.0 hPa 4.0 m/s 94.4 mm 7.9° 1008.0 hPa 4.0 m/s 94.4 mm
 07:13     16:33    Daglengte: 9:20 Dinsdag 07 Dec
01:00 7.7° 1008.2 hPa 3.9 m/s 94.4 mm 7.7° 1008.2 hPa 3.9 m/s 94.4 mm
04:00 7.2° 1008.8 hPa 5.5 m/s 96.0 mm 7.2° 1008.8 hPa 5.5 m/s 96.0 mm
07:00 6.9° 1009.6 hPa 5.6 m/s 96.0 mm 6.9° 1009.6 hPa 5.6 m/s 96.0 mm
10:00 8.6° 1010.8 hPa 7.0 m/s 96.0 mm 8.6° 1010.8 hPa 7.0 m/s 96.0 mm
13:00 9.2° 1011.2 hPa 7.6 m/s 96.0 mm 9.2° 1011.2 hPa 7.6 m/s 96.0 mm
16:00 8.1° 1012.5 hPa 6.7 m/s 96.1 mm 8.1° 1012.5 hPa 6.7 m/s 96.1 mm
19:00 7.4° 1014.3 hPa 6.1 m/s 96.1 mm 7.4° 1014.3 hPa 6.1 m/s 96.1 mm
22:00 6.9° 1015.1 hPa 5.3 m/s 96.2 mm 6.9° 1015.1 hPa 5.3 m/s 96.2 mm
 07:14     16:33    Daglengte: 9:19 Woensdag 08 Dec
01:00 6.7° 1015.5 hPa 4.4 m/s 96.2 mm 6.7° 1015.5 hPa 4.4 m/s 96.2 mm
04:00 6.5° 1016.0 hPa 3.6 m/s 96.2 mm 6.5° 1016.1 hPa 3.6 m/s 96.2 mm
07:00 6.0° 1016.9 hPa 3.3 m/s 96.2 mm 6.0° 1016.9 hPa 3.3 m/s 96.2 mm
13:00 10.4° 1016.4 hPa 0.5 m/s 96.2 mm 10.4° 1016.4 hPa 0.5 m/s 96.2 mm
19:00 8.3° 1018.0 hPa 1.0 m/s 96.2 mm 8.3° 1018.0 hPa 1.0 m/s 96.2 mm
 07:14     16:33    Daglengte: 9:19 Donderdag 09 Dec
01:00 7.1° 1019.3 hPa 2.1 m/s 96.2 mm 7.1° 1019.3 hPa 2.1 m/s 96.2 mm
07:00 6.7° 1019.6 hPa 2.4 m/s 96.2 mm 6.7° 1019.6 hPa 2.4 m/s 96.2 mm
13:00 11.5° 1018.4 hPa 0.9 m/s 96.2 mm 11.5° 1018.4 hPa 0.9 m/s 96.2 mm
19:00 8.9° 1018.6 hPa 3.0 m/s 96.2 mm 8.9° 1018.6 hPa 3.0 m/s 96.2 mm
 07:15     16:33    Daglengte: 9:18 Vrijdag 10 Dec
01:00 7.9° 1017.8 hPa 3.7 m/s 96.2 mm 7.9° 1017.8 hPa 3.7 m/s 96.2 mm
07:00 7.3° 1016.2 hPa 4.8 m/s 96.2 mm 7.3° 1016.2 hPa 4.8 m/s 96.2 mm
13:00 11.7° 1013.3 hPa 5.8 m/s 96.2 mm 11.7° 1013.3 hPa 5.8 m/s 96.2 mm
19:00 9.2° 1012.1 hPa 6.5 m/s 96.9 mm 9.2° 1012.1 hPa 6.5 m/s 96.9 mm
 07:16     16:33    Daglengte: 9:17 Zaterdag 11 Dec
01:00 10.3° 1010.9 hPa 4.0 m/s 105.5 mm 10.3° 1010.9 hPa 4.0 m/s 105.5 mm
07:00 9.7° 1017.0 hPa 1.9 m/s 2.4 mm
13:00 12.7° 1017.4 hPa 1.1 m/s 3.0 mm
19:00 10.7° 1018.5 hPa 2.0 m/s 0.4 mm
 07:17     16:33    Daglengte: 9:16 Zondag 12 Dec
01:00 10.0° 1019.8 hPa 2.2 m/s 1.4 mm
07:00 9.8° 1020.5 hPa 2.3 m/s 1.0 mm
13:00 13.4° 1021.1 hPa 0.6 m/s 0.5 mm
19:00 11.1° 1022.0 hPa 1.3 m/s 0.8 mm
 07:18     16:34    Daglengte: 9:16 Maandag 13 Dec
01:00 10.6° 1022.7 hPa 1.8 m/s 0.3 mm
07:00 10.2° 1022.8 hPa 1.2 m/s 0.5 mm
13:00 13.8° 1023.2 hPa 0.5 m/s 0.1 mm
19:00 11.1° 1023.8 hPa 1.4 m/s 0.2 mm
 07:18     16:34    Daglengte: 9:16 Dinsdag 14 Dec
01:00 10.3° 1024.2 hPa 1.9 m/s 0.1 mm
07:00 9.9° 1023.6 hPa 1.8 m/s 0.1 mm
13:00 13.2° 1023.0 hPa 0.9 m/s 0.4 mm
19:00 10.8° 1023.0 hPa 1.8 m/s 0.4 mm
 07:19     16:34    Daglengte: 9:15 Woensdag 15 Dec
01:00 9.8° 1023.4 hPa 2.3 m/s 0.4 mm
07:00 9.3° 1023.1 hPa 2.7 m/s 0.2 mm
13:00 13.2° 1023.1 hPa 1.6 m/s 0.0 mm
19:00 10.4° 1023.6 hPa 2.1 m/s 0.1 mm
 07:20     16:34    Daglengte: 9:14 Donderdag 16 Dec
01:00 9.5° 1024.2 hPa 2.3 m/s 0.1 mm
07:00 9.0° 1023.7 hPa 2.2 m/s 0.2 mm
FMI Hirlam - 7.5 km EWN WRFDA - 12 km DWD ICON - 7 km GFS - 25 km Basiskaart






























































Updatetijd (Europe/Amsterdam) Resolutie Lengte Stap
FMI Hirlam 06:00, 12:00, 18:00, 00:00 7.5 km 49h 1h
EWN WRFDA 08:45, 14:45, 20:45, 02:45 12 km 73h 1h
DWD ICON 04:45, 10:45, 16:45, 22:45 7 km 75h 1h
GFS 07:30, 13:30, 19:30, 01:30 25 km 237h 3h
30+ mm
25-30 mm
20-25 mm
15-20 mm
10-15 mm
6-10 mm
4-6 mm
2-4 mm
1-2 mm
0.5-1 mm
0.2-0.5 mm
0.1-0.2 mm
30+ mm
25-30 mm
20-25 mm
15-20 mm
10-15 mm
6-10 mm
4-6 mm
2-4 mm
1-2 mm
0.5-1 mm
0.2-0.5 mm
0.1-0.2 mm
Sneeuwval
Natte sneeuw
Hagel
Vorst
30+ mm
25-30 mm
20-25 mm
15-20 mm
10-15 mm
6-10 mm
4-6 mm
2-4 mm
1-2 mm
0.5-1 mm
0.2-0.5 mm
0.1-0.2 mm
Sneeuwval
Natte sneeuw
Hagel
Vorst
Onweer
50 mm
40 mm
30 mm
26 mm
22 mm
18 mm
14 mm
10 mm
9 mm
8 mm
7 mm
6 mm
5 mm
4.5 mm
4 mm
3.5 mm
3 mm
2.5 mm
2 mm
1.5 mm
1 mm
0.8 mm
0.6 mm
0.4 mm
0.2 mm
0.05 mm
35°
30°
25°
20°
15°
10°
-5°
-10°
-15°
-20°
-25°
-30°
-35°
33> m/s
29 m/s
25 m/s
21 m/s
17 m/s
14 m/s
11 m/s
8 m/s
5 m/s
3 m/s
0 m/s
2600 J/kg
2400 J/kg
2200 J/kg
2000 J/kg
1800 J/kg
1600 J/kg
1400 J/kg
1200 J/kg
1000 J/kg
800 J/kg
600 J/kg
400 J/kg
200 J/kg
70 dBZ
65 dBZ
60 dBZ
55 dBZ
50 dBZ
45 dBZ
40 dBZ
35 dBZ
30 dBZ
25 dBZ
20 dBZ
15 dBZ
10 dBZ
5 dBZ
-1 K
-2 K
-3 K
-4 K
-5 K
-6 K
-7 K
-8 K
-9 K
950 m²/s²
900 m²/s²
850 m²/s²
800 m²/s²
750 m²/s²
700 m²/s²
650 m²/s²
600 m²/s²
550 m²/s²
500 m²/s²
450 m²/s²
400 m²/s²
350 m²/s²
300 m²/s²
250 m²/s²
200 m²/s²
150 m²/s²
100 m²/s²
46 m/s
44 m/s
42 m/s
40 m/s
38 m/s
36 m/s
34 m/s
32 m/s
30 m/s
28 m/s
26 m/s
24 m/s
22 m/s
20 m/s
16 m/s
12 m/s
8 m/s
4 m/s
30 m/s
28 m/s
26 m/s
24 m/s
22 m/s
20 m/s
18 m/s
16 m/s
14 m/s
12 m/s
10 m/s
8 m/s
6 m/s
4 m/s
2 m/s
3.0
2.8
2.6
2.4
2.2
2.0
1.8
1.6
1.4
1.2
1.0
0.8
0.6
0.4
0.2
15
14
13
12
11
10
9
8
7
6
5
4
3
2
1
90%
80%
70%
60%
50%
40%
30%
20%
10%
42
40
38
36
34
32
30
28
26
24
22
20
18
16
14
12
90+ cm
80-90 cm
70-80 cm
60-70 cm
50-60 cm
40-50 cm
30-40 cm
20-30 cm
10-20 cm
1-10 cm
Sneeuwval
Natte sneeuw
Regen
>120 mm
115 mm
110 mm
105 mm
100 mm
95 mm
90 mm
85 mm
80 mm
75 mm
70 mm
65 mm
60 mm
55 mm
50 mm
45 mm
45 mm
40 mm
35 mm
30 mm
25 mm
20 mm
15 mm
10 mm
5 mm
0.1 mm
960 hPa
880 hPa
800 hPa
720 hPa
640 hPa
560 hPa
584 gpdm
568 gpdm
552 gpdm
536 gpdm
520 gpdm
504 gpdm
488 gpdm
Extreem zwaar Noodweer Kans op onweer
15% 15% 5% 50% 15%

Dag




Kaart






35°
30°
25°
20°
15°
10°
-5°
-10°
-15°
-20°
-25°
-30°
-35°
33> m/s
29 m/s
25 m/s
21 m/s
17 m/s
14 m/s
11 m/s
8 m/s
5 m/s
3 m/s
0 m/s
Extreem zwaar Noodweer Kans op onweer
15% 15% 5% 50% 15%
>120 mm
115 mm
110 mm
105 mm
100 mm
95 mm
90 mm
85 mm
80 mm
75 mm
70 mm
65 mm
60 mm
55 mm
50 mm
45 mm
45 mm
40 mm
35 mm
30 mm
25 mm
20 mm